EHI
0 0 0 0 0 0 0 0 0 0 0 0 0 0 0 0 0 0 0 0 0 0 0 1 1 0 0 0 0 0 0 0 0 0 0 0 0 0 0 0 0 0 0
0 0 0 0 0 0 0 0 0 0 0 0 0 0 0 0 0 0 0 0 0 0 0 1 1 0 0 0 0 0 0 0 0 0 0 0 0 0 0 0 0 0 0
0 0 0 0 0 0 0 0 0 0 0 0 0 0 0 0 0 0 0 0 1 0 0 1 1 0 0 0 0 0 0 0 0 0 0 0 0 0 0 0 0 0 0
0 0 0 0 0 0 0 0 0 0 0 0 0 0 0 0 0 0 0 0 0 0 0 0 0 0 0 0 0 0 0 0 0 0 0 0 0 0 0 0 0 0 0
0 0 0 0 0 0 0 0 0 0 0 0 0 0 0 0 0 0 0 0 0 0 0 0 0 0 0 0 0 0 0 0 0 0 0 0 0 0 0 0 0 0 0
0 0 0 0 0 0 0 0 0 0 0 0 0 0 0 0 0 0 0 0 0 0 0 0 0 0 0 0 0 0 0 0 0 0 0 0 0 0 0 0 0 0 0
0 0 0 0 0 0 0 0 0 0 0 0 0 0 0 0 0 0 0 0 0 0 0 0 0 0 0 0 0 0 0 0 0 0 0 0 0 0 0 0 0 0 0
0 0 0 0 0 0 0 0 0 0 0 0 0 0 0 0 0 0 0 0 0 0 0 0 0 0 0 0 0 0 0 0 0 0 0 0 0 0 0 0 0 0 0
0 0 0 0 0 0 0 0 0 0 0 0 0 0 0 0 0 0 0 0 0 0 0 0 0 0 0 0 0 0 0 0 0 0 0 0 0 0 0 0 0 0 0
0 0 0 0 0 0 0 0 0 0 0 0 0 0 0 0 0 0 0 0 0 0 0 0 0 0 0 0 0 0 0 0 0 0 0 0 0 0 0 0 0 0 0
0 0 0 0 0 0 0 0 0 0 0 0 0 0 0 0 0 0 0 0 0 0 0 0 0 0 0 0 0 0 0 0 0 0 0 0 0 0 0 0 0 0 0
0 0 0 0 0 0 0 0 0 0 0 0 0 0 0 0 0 0 0 0 0 0 0 0 0 0 0 0 0 0 0 0 0 0 0 0 0 0 0 0 0 0 0
0 0 0 0 0 0 0 0 0 0 0 0 0 0 0 0 0 0 0 0 0 0 0 0 0 0 0 0 0 0 0 0 0 0 0 0 0 0 0 0 0 0 0
0 0 0 0 0 0 0 0 0 0 0 0 0 0 0 0 0 0 0 0 0 0 0 0 0 0 0 0 0 0 0 0 0 0 0 0 0 0 0 0 0 0 0
0 0 0 0 0 0 0 0 0 0 0 0 0 0 0 0 0 0 0 0 0 0 0 0 0 0 0 0 0 0 0 0 0 0 0 0 0 0 0 0 0 0 0
0 0 0 0 0 0 0 0 0 0 0 0 0 0 0 0 0 0 0 0 0 0 0 0 0 0 0 0 0 0 0 0 0 0 0 0 0 0 0 0 0 0 0
0 0 0 0 0 0 0 0 0 0 0 0 0 0 0 0 0 0 0 0 0 0 0 0 0 0 0 0 0 0 0 0 0 0 0 0 0 0 0 0 0 0 0
0 0 0 0 0 0 0 0 0 0 0 0 0 0 0 0 0 0 0 0 0 0 0 0 0 0 0 0 0 0 0 0 0 0 0 0 0 0 0 0 0 0 0
0 0 0 0 0 0 0 0 0 0 0 0 0 0 0 0 0 0 0 0 0 0 0 0 0 0 0 0 0 0 0 0 0 0 0 0 0 0 0 0 0 0 0
0 0 0 0 0 0 0 0 0 0 0 0 0 0 0 0 0 0 0 0 0 0 0 0 0 0 0 0 0 0 0 0 0 0 0 0 0 0 0 0 0 0 0
0 0 0 0 0 0 0 0 0 0 0 0 0 0 0 0 0 0 0 0 0 0 0 0 0 0 0 0 0 0 0 0 0 0 0 0 0 0 0 0 0 0 0
0 0 0 0 0 0 0 0 0 0 0 0 0 0 0 0 0 0 0 0 0 0 0 0 0 0 0 0 0 0 0 0 0 0 0 0 0 0 0 0 0 0 0
0 0 0 0 0 0 0 0 0 0 0 0 0 0 0 0 0 0 0 0 0 0 0 0 0 0 0 0 0 0 0 0 0 0 0 0 0 0 0 0 0 0 0
0 0 0 0 0 0 0 0 0 0 0 0 0 0 0 0 0 0 0 0 0 0 0 0 0 0 0 0 0 0 0 0 0 0 0 0 0 0 0 0 0 0 0
0 0 0 0 0 0 0 0 0 0 0 0 0 0 0 0 0 0 0 0 0 0 0 0 0 0 0 0 0 0 0 0 0 0 0 0 0 0 0 0 0 0 0
0 0 0 0 0 0 0 0 0 0 0 0 0 0 0 0 0 0 0 0 0 0 0 0 0 0 0 0 0 0 0 0 0 0 0 0 0 0 0 0 0 0 0
Wind_Speed
4 2 2 2 1 2 2 3 3 4 4 4 4 4 4 4 3 3 4 4 4 5 4 3 4 4 3 3 3 3 3 2 2 2 2 2 2 2 2 2 2 2 2
4 3 2 2 2 2 2 2 2 4 4 4 3 3 3 3 2 3 4 4 4 4 4 4 4 4 3 4 3 3 2 2 2 2 3 3 3 3 2 2 2 2 1
5 4 3 3 2 2 2 2 2 3 4 4 3 3 3 2 2 3 3 3 4 4 4 4 4 4 4 3 4 3 3 3 2 1 2 2 2 1 2 3 2 2 1
6 4 3 3 3 2 2 2 3 3 3 5 5 6 4 4 3 2 2 3 3 4 4 4 4 4 4 4 4 4 3 3 3 2 1 1 0 2 2 3 2 2 2
6 5 4 3 3 2 2 2 2 2 3 4 5 5 4 3 2 3 3 3 2 3 3 3 4 4 4 5 5 4 4 3 3 3 2 2 2 2 2 2 2 2 2
5 4 3 3 3 2 3 3 3 3 3 3 4 5 5 4 4 3 3 2 2 2 2 2 3 3 3 4 4 5 5 4 4 3 3 3 2 3 3 3 3 2 1
5 4 4 4 3 3 3 3 3 3 3 3 4 4 4 4 4 4 3 2 2 1 2 2 3 3 3 3 4 4 4 5 5 4 3 3 3 2 2 2 2 2 1
5 5 4 4 4 4 4 4 4 4 3 3 3 3 3 2 2 3 2 2 2 1 2 2 2 3 3 3 3 3 3 4 4 4 4 3 3 3 3 2 2 3 2
5 4 4 4 4 4 4 4 4 4 3 3 3 3 3 3 3 3 2 2 1 1 2 2 2 2 2 3 3 3 3 3 3 3 3 3 2 2 3 3 4 4 4
4 4 4 4 4 4 4 4 4 4 4 3 3 2 2 3 3 2 3 2 2 2 2 2 2 2 2 3 3 3 3 4 3 2 3 3 2 2 2 3 3 4 4
5 4 4 4 4 4 4 4 4 4 3 3 3 3 2 2 2 2 2 2 2 2 2 2 3 3 3 3 3 3 3 4 3 3 4 3 3 3 2 2 3 3 4
4 4 4 4 5 5 5 5 4 4 3 3 3 2 2 2 2 2 2 2 2 2 2 2 2 2 2 3 3 3 3 4 4 4 4 4 3 4 3 3 3 3 4
3 3 4 4 5 5 5 5 4 4 4 4 3 3 2 2 2 2 2 2 2 2 2 2 2 2 2 2 3 3 4 4 4 4 5 5 4 5 4 4 4 3 3
4 4 4 4 4 4 5 5 4 4 4 4 4 3 3 3 2 2 2 2 2 2 1 2 2 2 2 3 3 3 4 4 4 5 5 5 5 5 5 4 5 4 4
4 4 4 4 4 4 4 4 4 4 4 4 4 3 3 3 2 2 2 2 2 2 2 2 2 2 2 2 3 3 4 4 4 4 5 5 5 5 5 4 5 5 4
4 3 3 4 4 4 3 3 4 4 4 4 4 3 3 3 2 2 2 2 2 2 2 2 2 2 2 2 4 4 4 4 5 5 5 4 5 5 6 7 7 7 6
4 4 3 4 3 3 3 3 3 4 4 4 3 3 3 3 2 2 2 2 2 2 2 2 3 3 3 4 5 5 4 5 5 5 5 4 4 5 5 6 7 7 9
4 3 3 2 2 2 2 2 2 3 3 3 3 3 3 3 3 2 2 2 2 2 3 3 4 4 4 5 5 6 5 4 5 5 5 5 5 5 5 5 6 6 7
3 2 2 2 2 2 2 2 2 3 3 3 3 3 3 3 3 3 3 2 2 2 3 3 4 5 4 5 6 5 4 4 5 5 5 5 6 5 6 6 6 6 6
1 1 1 2 2 2 3 3 3 3 3 3 3 3 3 3 3 3 2 2 3 3 3 4 4 5 5 5 6 6 4 4 4 4 5 6 7 6 6 6 6 7 6
1 2 2 2 2 2 3 3 2 2 2 2 2 2 2 3 3 2 2 3 3 3 3 4 4 4 5 5 7 7 4 4 4 4 4 4 6 7 7 8 7 8 7
1 2 2 1 1 1 2 2 2 1 1 1 1 2 2 2 2 3 2 3 3 3 3 3 3 3 3 4 5 7 7 6 5 5 4 4 6 8 9 8 8 8 7
1 1 1 1 0 1 2 2 2 1 2 1 1 1 2 2 2 3 3 3 3 3 3 3 3 3 2 3 5 6 7 7 6 5 6 7 8 8 8 8 8 7 6
0 1 1 1 1 1 1 1 1 1 1 2 1 2 2 2 2 2 2 3 3 3 3 3 3 3 3 3 3 3 4 5 5 5 5 7 7 7 7 7 6 5 6
0 0 1 1 1 0 0 1 1 1 1 1 2 2 2 2 2 3 3 4 4 4 4 4 4 4 4 4 5 5 4 4 4 4 4 4 4 5 5 5 5 4 5
0 1 1 1 1 1 1 1 1 1 2 2 2 2 2 2 2 3 3 4 6 6 8 8 7 6 7 8 8 9 9 8 7 6 5 5 5 5 5 5 5 5 5
Wind_Direction
235 231 236 222 203 190 180 182 184 170 164 169 167 171 175 173 169 167 171 173 169 170 175 168 167 174 173 174 180 179 175 170 183 181 173 173 184 192 195 203 200 187 189
226 229 220 201 190 183 179 171 184 172 169 175 174 177 165 164 166 166 169 172 170 169 171 170 171 176 171 171 175 181 182 168 182 200 184 188 185 188 195 199 208 215 208
218 216 208 199 188 179 185 179 179 173 169 168 160 146 135 135 152 165 168 175 172 169 163 173 179 181 178 180 179 183 191 183 175 201 215 198 205 174 176 193 203 213 229
217 206 197 191 181 182 177 176 169 163 166 165 163 163 168 172 182 179 176 174 175 175 173 173 178 186 184 187 187 185 196 192 180 177 232 288 128 197 184 183 193 210 237
203 192 182 176 161 152 152 154 149 145 150 159 165 166 170 168 155 155 161 166 168 176 179 181 183 189 191 193 194 191 193 202 198 189 181 190 209 221 217 212 201 211 220
191 180 166 151 142 142 141 140 144 139 139 151 161 164 167 159 152 157 162 169 169 174 179 180 186 192 197 194 197 199 199 201 205 204 200 195 202 206 213 225 227 238 235
183 173 167 162 155 153 152 152 147 136 133 142 157 168 170 165 167 170 172 171 174 177 191 192 192 195 200 196 195 199 205 206 209 211 211 213 220 227 228 226 230 248 249
185 178 179 176 170 165 162 159 156 146 142 142 150 162 165 168 168 171 171 181 190 187 192 198 194 196 199 200 197 195 202 206 211 220 218 216 223 219 225 229 224 238 238
191 188 183 181 179 171 167 164 159 148 145 145 142 149 159 164 163 167 174 182 186 173 177 185 193 194 192 197 197 196 199 202 210 216 217 220 220 230 230 232 227 229 240
197 195 191 189 185 175 163 157 158 154 149 145 142 137 148 150 154 161 163 173 186 185 174 175 181 190 197 195 196 198 203 203 210 208 215 229 226 227 230 232 236 239 242
198 195 190 187 181 170 163 160 160 155 150 149 148 139 138 148 151 155 167 176 180 185 191 198 190 189 200 206 201 204 206 211 214 214 217 227 227 225 227 232 236 240 240
193 186 184 177 174 172 170 170 169 166 164 159 154 147 145 156 162 167 173 177 177 186 197 194 190 190 201 211 209 207 210 215 220 223 224 227 225 226 228 226 228 238 242
184 181 183 182 182 184 181 178 176 173 170 168 166 162 168 176 177 180 182 180 181 185 189 189 189 194 205 212 217 219 219 221 226 226 225 228 225 227 223 226 229 233 241
184 186 191 192 189 190 188 184 182 177 174 175 176 181 187 194 191 191 195 195 191 190 197 210 212 214 215 217 216 222 226 228 232 232 229 231 230 231 226 226 228 228 230
195 197 199 196 192 190 190 190 187 183 182 184 190 194 197 195 188 190 196 199 201 202 201 210 221 228 232 229 224 228 231 233 235 236 236 237 238 242 242 235 230 228 228
201 199 197 195 197 196 194 194 196 194 190 192 199 196 195 192 192 195 196 195 201 206 211 219 228 239 241 224 233 242 240 239 236 236 240 241 236 235 237 240 240 238 234
205 205 204 203 201 201 197 193 196 191 190 191 198 199 197 192 193 196 200 205 208 209 220 229 232 242 245 231 232 236 243 243 245 242 241 242 241 237 240 237 235 239 240
209 209 208 205 200 194 193 180 184 188 185 188 197 202 204 200 199 202 212 222 222 222 232 237 240 244 245 235 229 229 238 243 246 246 246 248 249 245 249 254 250 249 245
207 206 202 190 174 172 168 156 173 181 184 195 200 205 206 203 202 208 217 228 229 234 243 244 242 242 244 235 231 232 235 237 245 250 251 251 253 246 249 254 255 258 257
179 171 160 154 160 168 166 162 177 184 194 204 210 211 212 208 210 216 225 237 235 238 245 247 245 243 246 238 234 234 231 237 245 249 249 247 252 255 252 256 256 259 263
147 147 146 154 164 164 163 164 175 203 212 202 200 215 220 212 213 218 227 230 233 236 240 247 251 248 247 241 236 236 233 234 244 250 252 253 251 259 260 262 259 258 267
113 130 129 126 130 155 161 165 192 213 206 198 202 220 227 217 210 211 224 228 227 229 236 241 251 253 252 253 242 239 241 247 250 254 257 257 257 265 265 264 260 259 260
79 97 123 120 123 185 184 179 203 196 186 192 215 228 234 226 220 218 222 233 230 232 239 244 250 256 257 255 253 250 248 248 253 257 259 264 264 263 260 254 257 255 248
57 130 147 160 208 239 220 203 206 196 190 206 230 239 237 237 236 234 231 234 234 238 243 246 251 257 258 254 253 252 249 247 252 256 255 257 259 258 260 259 253 249 247
296 194 188 195 226 252 263 261 229 206 210 235 256 258 253 248 250 252 252 249 248 251 254 254 253 254 258 260 269 270 264 263 263 272 269 263 259 259 259 258 258 255 251
232 204 215 221 246 263 285 293 270 230 222 242 255 261 258 252 252 253 262 256 252 263 262 261 262 264 263 268 267 269 270 270 263 265 258 257 257 259 260 262 263 260 256